www.pogodaiklimat.ru
ПОГОДА в Фредерике
Время
и дата
01:40 25.09
02:00 25.09
02:20 25.09
02:40 25.09
03:00 25.09
03:20 25.09
03:40 25.09
04:00 25.09
04:20 25.09
04:40 25.09
04:50 25.09
05:20 25.09
05:40 25.09
05:47 25.09
05:50 25.09
06:47 25.09
07:47 25.09
08:47 25.09
09:47 25.09
10:47 25.09
11:47 25.09
12:47 25.09
13:47 25.09
14:47 25.09
15:47 25.09
16:47 25.09
17:47 25.09
18:47 25.09
19:47 25.09
21:00 25.09
21:20 25.09
21:40 25.09
22:00 25.09
22:20 25.09
22:40 25.09
23:00 25.09
23:20 25.09
23:40 25.09
00:00 26.09
00:20 26.09
00:40 26.09
01:00 26.09
01:20 26.09
01:40 26.09
01:50 26.09
02:20 26.09
02:40 26.09
02:50 26.09
Ветер
(напр.,м/с)
Видим. Явления Облачность Т
(С)
Тd
(С)
f
(%)
Тe
(С)
Тes
(С)
Комфортность P
(гПа)
Po
(гПа)
Тmin
(С)
Tmax
(С)
R
(мм)
R24
(мм)
S
(см)
штиль 0 16 км 10/0 2850 m
[Ac]
+13.0 +12.0 94 +12 +12 1000.4
штиль 0 16 км 10/0 2850 m
[Ac]
+13.0 +12.0 94 +12 +12 1000.4
штиль 0 16 км 10/0 2400 m
[Ac]
+13.0 +12.0 94 +12 +12 1000.1
штиль 0 16 км 10/5 1950 m
[Ac]
+13.0 +12.0 94 +12 +12 999.7
ЮЗ 2 16 км 10/8 1950 m
[Ac]
+13.0 +13.0 100 +12 +12 999.7
штиль 0 16 км 10/0 2250 m
[Ac]
+13.0 +13.0 100 +12 +12 999.7
штиль 0 16 км 10/0 2250 m
[Ac]
+13.0 +12.0 94 +12 +12 999.7
штиль 0 16 км 10/8 1500 m
[Ac]
+13.0 +13.0 100 +12 +12 999.4
штиль 0 16 км 10/10 1500 м +13.0 +12.0 94 +12 +12 999.4
штиль 0 16 км 5/5 1500 m
[Ac]
+12.0 +12.0 100 +11 +11 999.1
Ю 2 16 км 5/0 2400 m
[Ac]
+12.0 +12.0 100 +11 +11 999.1
штиль 0 16 км ясно +12.0 +12.0 100 +11 +11 998.7
Ю 2 16 км ясно +12.0 +12.0 100 +11 +11 998.7
штиль 0 16 км ясно +13.0 +13.0 100 +12 +12 998.7
Ю 2 16 км ясно +12.0 +12.0 100 +11 +11 998.7
штиль 0 16 км ясно +13.0 +13.0 100 +12 +12 998.4
штиль 0 16 км ясно +14.0 +14.0 100 +13 +14 997.4
штиль 0 16 км ясно +15.0 +14.0 94 +15 +18 997.4
штиль 0 16 км 5/5 1800 м +16.0 +14.0 88 +16 +20 997.4
штиль 0 16 км ясно +17.0 +14.0 82 +17 +29 опасность
простуды
996.1
ЮЗ 5 11 км ясно +22.0 +15.0 64 +25 +31 комфорт 995.1
ЮВ 3 5 км 10/10 690 м +19.0 +16.0 83 +21 +21 комфорт 995.1
штиль 0 11 км ясно +19.0 +18.0 94 +21 +37 комфорт 994.0
штиль 0 16 км ясно +21.0 +18.0 83 +25 +38 комфорт 993.4
Ю 3 16 км 5/0 2400 m
[Ac]
+22.0 +17.0 73 +26 +30 душно 992.4
штиль 0 16 км ясно +23.0 +18.0 73 +28 +33 душно 992.0
штиль 0 16 км 5/0 2100 m
[Ac]
+22.0 +18.0 78 +27 +28 душно 992.0
штиль 0 16 км 5/0 2400 m
[Ac]
+19.0 +18.0 94 +21 +21 комфорт 992.4
СЗ 3 16 км 10/0 2550 m
[Ac]
+20.0 +18.0 88 +23 +23 комфорт 994.0
З 5 16 км дождь 10/5 1950 m
[Ac]
+18.0 +16.0 88 +18 +18 995.1
З 2 16 км 10/5 1800 m
[Ac]
+18.0 +16.0 88 +19 +19 995.1
штиль 0 16 км слабый дождь 10/5 1800 m
[Ac]
+17.0 +16.0 94 +17 +17 995.4
штиль 0 16 км 10/0 2100 m
[Ac]
+16.0 +16.0 100 +16 +16 995.4
штиль 0 16 км 10/0 2100 m
[Ac]
+17.0 +15.0 88 +17 +17 995.4
З 3 16 км 10/0 3000 m
[Ac]
+19.0 +13.0 68 +20 +20 995.4
З 3 16 км 10/0 3000 m
[Ac]
+18.0 +15.0 83 +18 +18 995.7
З 3 16 км 8/0 3000 m
[Ac]
+18.0 +15.0 83 +18 +18 995.7
З 4 16 км 5/0 3000 m
[Ac]
+18.0 +14.0 77 +18 +18 995.7
З 3 16 км 8/0 3000 m
[Ac]
+18.0 +14.0 77 +18 +18 995.7
З 4 16 км 5/0 3000 m
[Ac]
+18.0 +13.0 73 +18 +18 995.7
З 3 16 км ясно +17.0 +13.0 77 +17 +17 995.7
штиль 0 16 км ясно +16.0 +13.0 82 +16 +16 995.7
СЗ 2 16 км ясно +17.0 +13.0 77 +17 +17 995.7
З 2 16 км ясно +16.0 +13.0 82 +16 +16 995.7
З 2 16 км ясно +15.0 +13.0 88 +15 +15 995.7
штиль 0 16 км ясно +13.0 +13.0 100 +12 +12 995.4
Ю 2 16 км ясно +13.0 +13.0 100 +12 +12 995.4
ЮВ 2 16 км ясно +13.0 +13.0 100 +12 +12 995.4
Местоположение метеостанции Frederick Municipal Airport: широта 39.4200 долгота -77.3700 высота над уровнем моря 92 м.
В архиве по умолчанию представлена погода в Фредерике за последние 1-2 суток. Обновление информации о фактической погоде в базе происходит ежечасно! Архивные данные за месяц целиком и за предыдущие месяцы Вы можете получить, выбрав интересующий диапазон дат из раскрывающегося списка и нажав кнопку "Ввод!".
Внимание! Архив погоды МЕТАР в базе сайта по станциям, не включенным в климатический монитор, хранится не более 60 дней. Нет смысла пытаться выбрать более раннюю дату.
*Определитесь, кто Вы:
Внимание! Время в таблицах - местное (без учета летнего времени). Для получения всемирного времени необходимо вычесть поправку, которая равна -5 ч.
Смотрите также архив погоды в соседних городах и на ближайших метеорологических станциях:
Партнеры нашего сайта:      
Пояснения к столбцам:
  • Ветер - указаны скорость ветра в м/с - средняя за 10 мин, порывы в срок и между сроками (в фигурных скобках) и направление, откуда дует ветер: С - северный,
  • СВ - северо-восточный, В - восточный, ЮВ - юго-восточный, Ю - южный, ЮЗ - юго-западный, З - западный, СЗ - северо-западный.
  • Видимость - горизонтальная дальность видимости в метрах или километрах. При видимости от 1 до 10 км при отсутствии осадков обычно наблюдается дымка, при ухудшении видимости до 1 км и менее - туман. В сухую погоду видимость может ухудшаться дымом, пылью или мглою.
  • Явления - указаны атмосферные явления, наблюдавшиеся в срок или в последний час перед сроком; фигурными скобками обозначены явления, наблюдавшиеся между сроками (за 1-3 часа до срока); квадратными скобками обозначены град или гололедные отложения с указанием их диаметра в мм.
  • Облачность - указаны через наклонную черту общая и нижняя облачность в баллах и высота нижней границы облаков в метрах; квадратными скобками обозначены формы облаков: Ci - перистые, Cs - перисто-слоистые, Cc - перисто-кучевые, Ac - высококучевые, As - высокослоистые, Sc - слоисто-кучевые, Ns - слоисто-дождевые, Cu - кучевые, Cb - кучево-дождевые. Подробнее классификацию облаков см. в Атласе облаков (PDF).
  • T - Температура воздуха - температура, измеренная на высоте 2 м над землей.
  • Td - Температура точки росы - температура, при понижении до которой содержащийся в воздухе водяной пар достигнет насыщения.
  • f - Относительная влажность воздуха - влажноcть воздуха, измеренная на высоте 2 м над землей.
  • Te - Эффективная температура - температура, которую ощущает одетый по сезону человек в тени. Характеристика душности погоды. При расчете учитывается влияние влажности воздуха и скорости ветра на теплоощущения человека.
  • Tes - Эффективная температура на солнце - температура, которую ощущает человек, с поправкой на солнечный нагрев. Характеристика знойности погоды. Зависит от высоты солнца над горизонтом, облачности и скорости ветра. Ночью, в пасмурную погоду, а также при ветре 12 м/с и более поправка равна нулю.
  • P - Атмосферное давление - приведенное к уровню моря атмосферное давление.
  • Po - Атмосферное давление - измеренное на уровне метеостанции атмосферное давление.
  • Tmin - Минимальная температура - минимум температуры воздуха на высоте 2 м над землей.
  • Tmax - Максимальная температура - максимум температуры воздуха на высоте 2 м над землей.
  • R - Количество осадков - Количество выпавших осадков за период времени, мм. При наведении курсора мыши на число - период времени, за который выпало указанное количество осадков.
  • R24 - Количество осадков - Количество выпавших осадков за 24 часа, мм.
  • S - Снежный покров - Высота снежного покрова, см. При наведении курсора мыши на число - состояние снежного покрова и степень покрытия местности в баллах.